Houlton, ME

9:30 PM EDT on September 24, 2017 (GMT -0400)
Houlton International

Weather History for KHUL - November, 2011

Change the Weather History Date:

Sunday, November 27, 2011

  Actual Average Record
Temperature  
Mean Temperature 38 °F 28 °F  
Max Temperature 43 °F 36 °F 60 °F (1999)
Min Temperature 32 °F 20 °F -8 °F (1975)
Degree Days  
Heating Degree Days 27 37  
Month to date heating degree days 726 857  
Since 1 July heating degree days 1573 1993  
Cooling Degree Days 0 0  
Month to date cooling degree days 0 0  
Year to date cooling degree days 168 191  
Moisture  
Dew Point 30 °F    
Average Humidity 81    
Maximum Humidity 92    
Minimum Humidity 69    
Precipitation  
Precipitation T in 0.13 in 2.27 in (1950)
Month to date precipitation 1.52 3.63  
Year to date precipitation 40.05 36.31  
Sea Level Pressure  
Sea Level Pressure 30.27 in    
Wind  
Wind Speed 7 mph (ESE)    
Max Wind Speed 16 mph    
Max Gust Speed 25 mph    
Visibility 9 miles    
Events Rain    
T = Trace of Precipitation, MM = Missing Value Source: NWS Daily Summary

Daily Weather History Graph

Daily Weather History Graph

Search for Another Location

Airport or City:

Trip Planner

Search our weather history database for the weather conditions in past years. The results will help you decide how hot, cold, wet, or windy it might be!

Date:

Astronomy

Nov. 27, 2011 Rise Set
Actual Time 6:47 AM EST 3:49 PM EST
Civil Twilight 6:14 AM EST 4:22 PM EST
Nautical Twilight 5:36 AM EST 5:00 PM EST
Astronomical Twilight 5:01 AM EST 5:36 PM EST
Moon 9:11 AM EST (11/27) 6:22 PM EST (11/27)
Length of Visible Light 10h 08m
Length of Day
9h 01m
Waxing Crescent, 8% of the Moon is Illuminated
Nov 27
Waxing Crescent
Dec 2
First Quarter
Dec 10
Full
Dec 17
Last Quarter
Dec 24
New

Hourly Weather History & Observations

Time (EST) Temp. Windchill Dew Point Humidity Pressure Visibility Wind Dir Wind Speed Gust Speed Precip Events Conditions
12:53 AM 33.1 °F 28.7 °F 27.0 °F 78% 30.30 in 10.0 mi NNE 4.6 mph - N/A   Overcast
1:53 AM 33.1 °F - 28.0 °F 82% 30.32 in 10.0 mi Calm Calm - N/A   Overcast
2:53 AM 33.1 °F - 27.0 °F 78% 30.32 in 10.0 mi Calm Calm - N/A   Overcast
3:53 AM 34.0 °F 28.8 °F 25.0 °F 70% 30.32 in 10.0 mi East 5.8 mph - N/A   Overcast
4:53 AM 34.0 °F 27.2 °F 25.0 °F 70% 30.32 in 10.0 mi East 8.1 mph - N/A   Overcast
5:53 AM 34.0 °F 28.0 °F 24.1 °F 67% 30.35 in 10.0 mi East 6.9 mph - N/A   Overcast
6:53 AM 33.1 °F 26.9 °F 25.0 °F 72% 30.35 in 10.0 mi East 6.9 mph - N/A   Overcast
7:27 AM 33.8 °F 25.8 °F 26.6 °F 75% 30.33 in 10.0 mi ESE 10.4 mph 16.1 mph N/A   Overcast
7:53 AM 33.8 °F 26.4 °F 26.6 °F 75% 30.33 in 10.0 mi ESE 9.2 mph - N/A   Overcast
8:53 AM 34.0 °F 26.6 °F 26.1 °F 73% 30.35 in 10.0 mi ESE 9.2 mph - N/A   Overcast
9:53 AM 34.0 °F 26.0 °F 27.0 °F 75% 30.35 in 10.0 mi SE 10.4 mph - N/A   Overcast
10:33 AM 35.6 °F 26.6 °F 28.4 °F 75% 30.30 in 10.0 mi ESE 13.8 mph 21.9 mph N/A   Overcast
10:53 AM 35.1 °F 25.9 °F 28.0 °F 76% 30.31 in 10.0 mi ESE 13.8 mph 21.9 mph N/A   Overcast
11:53 AM 35.1 °F 29.3 °F 28.0 °F 76% 30.30 in 10.0 mi Variable 6.9 mph 17.3 mph N/A   Overcast
12:12 PM 35.6 °F 29.9 °F 28.4 °F 75% 30.29 in 10.0 mi SE 6.9 mph - N/A   Overcast
12:53 PM 35.1 °F 30.1 °F 30.0 °F 82% 30.32 in 10.0 mi East 5.8 mph - N/A   Overcast
1:53 PM 35.1 °F 29.3 °F 30.0 °F 82% 30.30 in 10.0 mi SE 6.9 mph - N/A   Overcast
2:37 PM 35.6 °F 28.6 °F 30.2 °F 81% 30.27 in 10.0 mi SE 9.2 mph - N/A   Overcast
2:53 PM 36.0 °F 31.1 °F 30.0 °F 79% 30.29 in 10.0 mi SE 5.8 mph - N/A   Overcast
3:53 PM 36.0 °F 30.3 °F 30.0 °F 79% 30.29 in 10.0 mi Variable 6.9 mph - N/A   Overcast
4:53 PM 36.0 °F 30.3 °F 30.0 °F 79% 30.26 in 10.0 mi Variable 6.9 mph - N/A   Overcast
5:53 PM 36.0 °F 30.3 °F 30.0 °F 79% 30.24 in 10.0 mi SE 6.9 mph - N/A   Overcast
6:21 PM 35.6 °F 28.6 °F 30.2 °F 81% 30.18 in 10.0 mi ESE 9.2 mph - N/A   Overcast
6:53 PM 37.0 °F 29.8 °F 30.9 °F 79% 30.20 in 10.0 mi SE 10.4 mph 17.3 mph N/A   Overcast
7:53 PM 37.0 °F 32.4 °F 32.0 °F 82% 30.20 in 7.0 mi SE 5.8 mph - N/A   Overcast
8:35 PM 37.4 °F 34.9 °F 33.8 °F 87% 30.16 in 8.0 mi Variable 3.5 mph - N/A   Overcast
8:53 PM 37.0 °F 31.6 °F 34.0 °F 89% 30.17 in 7.0 mi SSE 6.9 mph - N/A   Overcast
9:53 PM 37.9 °F 32.1 °F 36.0 °F 93% 30.14 in 5.0 mi SSE 8.1 mph - N/A   Overcast
10:53 PM 42.1 °F 34.9 °F 39.9 °F 92% 30.08 in 4.0 mi SSE 13.8 mph 21.9 mph N/A   Overcast
11:53 PM 43.0 °F 37.2 °F 41.0 °F 93% 30.05 in 4.0 mi SSE 10.4 mph 19.6 mph 0.00 in Rain Light Rain